Showing default

HJ-2A, 46478

Orbit data source: Space-Track

HJ-2A, 46478 is a payload satellite owned by CRESDA (CN) in SSO that was launched on Sun, 27 Sep 2020 UTC via a CHANG ZHENG 4B launch vehicle from the Taiyaun Space Center, China (TSC). Payload-class satellites include a variety of spacecraft equipped with specific instruments for various scientific and technological missions. These include communications satellites like Starlink; space stations such as the ISS; scientific satellites like the Hubble; Earth observation satellites from companies like Planet Labs, Umbra, and HawkEye 360; GPS; miniature CubeSats for education and research; and military/defense satellites.

Loading next visibility...
Identifier
46478, 2020-067A
Orbit
SSO
Country
Flag of CNCN / PRC
Related business
Manufacturer
DFH
Mission
Operational Civil Science
Bus & Motor
CAST-2000, Unknown motor
Mass
510 kg wet, 510 kg dry
Launch date (UTC)
2020-09-27 (5 years ago)
Launch vehicle
CHANG ZHENG 4B
Launch site
Taiyaun Space Center, China (TSC)
Object type
Payload
Rocket body
Debris
Shape & HBR
Box + 2 Pan, Unknown HBR
Radar Cross Section
2.715 m², Large (>1 m²)

Expand to show TLE details & history
Last TLE update: 12 hours ago

TLE from 12 hours ago
0 HJ-2A
1 46478U 20067A   25261.28401084  .00000770  00000-0  11779-3 0  9999
2 46478  97.9080 340.7248 0004266  61.2113 298.9525 14.76481643268138
Epoch: 2025-09-18T06:48Z
TLE epoch observation values (Epoch: 2025-09-18T06:48:58.536Z)
Latitude
-0.00003°
Longitude
-118.96691°
Altitude
642.02 km
Speed
7.538 km/s
True Right ascension
22h 42m 53s
True Declination
0° 00' 00"
Sunlit
Object was in full shadow at epoch
Visualization orbit readout
Latitude
Unknown
Longitude
Unknown
Altitude
Unknown
Speed
Unknown
Apparent Right ascension
Unknown
Apparent Declination
Unknown
Sunlit
N/A
Visualization observer readout
Local Sidereal Time
11:20:40
Azimuth
Unknown
Elevation
Unknown
Doppler factor
Unknown
Orbital elements
Apogee altitude
640.491 km
Perigee altitude
634.505 km
Semi-major axis
7,015.635 km
Eccentricity
0.00043
Inclination
97.908°
RAAN
340.7248°
Arg. of periapsis
61.2113°
True anomaly
298.90971°
Mean anomaly
298.9525°
Eccentric anomaly
298.93111°
Mean motion
3.69354 °/min
Orbital period
97.47 mins
BSTAR
0.00011779
Loading maneuver chart data...
Computing Atmospheric mass density...
Loading historical data...
Loading historical data...
Loading historical data...
Loading historical data...
Loading historical data...
Loading historical data...
Loading historical data...

Documentation

Showing up to 5 results
|